User: anonymous   Login
Location: Cisewo
(53.3833°N, 14.9000°E)
Time: 23:47:55
(UTC+00:00)
Language:

Cosmos 1486 Rocket - Orbit

View from above orbital plane
View from above orbital plane
View from above satellite
View from above satellite

Ground track
Ground track

The orbit data is extracted from the following two-line orbital elements,

1 14241U 83079B   21174.80009462  .00000025  00000-0  17428-4 0  9996
2 14241  74.0604  74.1771 0016737 145.0018 215.2239 14.36224400983498
Epoch (UTC): 23 June 2021 19:12:08
Eccentricity: 0.0016737
inclination: 74.0604°
perigee height: 759 km
apogee height: 783 km
right ascension of ascending node: 74.1771°
argument of perigee: 145.0018°
revolutions per day: 14.36224400
mean anomaly at epoch: 215.2239°
orbit number at epoch: 98349

The dashed part of the orbit path shows where the satellite is in the earth's shadow,  

DLR